Hourly Data Report for May 20, 2021

TOBERMORY RCS
ONTARIO
Current Station Operator: ECCC - MSC

45°14'00.000" N
81°38'00.000" W
213.50 m
6128330
71767
TTR

Download Data

Hourly Data (May 2021)
Hourly Data Report for May 20, 2021
TIME
LST
Temp Definition
°C
Dew Point Definition
°C
Rel Hum Definition
%
Precip. Amount Definition
mm

Wind Dir Definition
10's deg

Wind Spd Definition
km/h
Visibility Definition
km
Stn Press Definition
kPa
Hmdx Definition


Wind Chill Definition


Weather Definition


00:00 17.5 9.8 61 0.0 20 6   99.98     LegendNANA
01:00 16.2 9.6 65 0.0 19 8   99.99     LegendNANA
02:00 14.1 10.1 77 0.0 17 6   100.00     LegendNANA
03:00 13.4 10.1 81 0.0 17 6   100.05     LegendNANA
04:00 14.5 11.3 81 0.0 16 7   100.05     LegendNANA
05:00 13.9 9.7 76 0.0 17 8   100.09     LegendNANA
06:00 14.1 9.7 75 0.0 16 8   100.12     LegendNANA
07:00 14.9 9.5 70 0.0 17 9   100.15     LegendNANA
08:00 16.6 9.5 63 0.0 18 9   100.20     LegendNANA
09:00 18.7 10.3 58 0.0 21 12   100.21     LegendNANA
10:00 19.9 12.5 63 0.0 22 13   100.24     LegendNANA
11:00 20.1 12.3 61 0.0 20 11   100.27     LegendNANA
12:00 20.3 12.7 62 0.0 20 12   100.26     LegendNANA
13:00 22.6 14.1 59 0.0 21 10   100.22 26   LegendNANA
14:00 22.8 13.5 56 0.0 24 15   100.23 26   LegendNANA
15:00 21.8 12.3 55 0.0 18 10   100.20     LegendNANA
16:00 22.2 12.9 56 0.0 18 7   100.16 25   LegendNANA
17:00 21.8 13.1 58 0.0 17 6   100.14 25   LegendNANA
18:00 21.9 13.7 59 0.0 16 4   100.11 25   LegendNANA
19:00 21.9 13.8 60 0.0 15 4   100.12 25   LegendNANA
20:00 21.2 13.9 63 0.0 15 6   100.12 25   LegendNANA
21:00 20.9 14.1 65 0.0 13 13   100.15     LegendNANA
22:00 20.5 13.1 63 0.0 14 11   100.14     LegendNANA
23:00 20.6 12.6 60 0.0 14 9   100.11     LegendNANA

Notes on Data Quality.

Legend

  • E = Estimated
  • M = Missing
  • NA = Not Available*
  • [empty] = Indicates an unobserved value
Date modified: